La Grande, OR

4:48 PM PDT on April 26, 2018 (GMT -0700)
La Grande-Union County

Weather History for KLGD - December, 2012

Change the Weather History Date:

Saturday, December 1, 2012

  Actual Average Record
Temperature  
Mean Temperature 48 °F -  
Max Temperature 53 °F 38 °F 57 °F (2013)
Min Temperature 44 °F 26 °F 8 °F (1985)
Degree Days  
Heating Degree Days 16    
Moisture  
Dew Point 34 °F    
Average Humidity 57    
Maximum Humidity 71    
Minimum Humidity 41    
Precipitation  
Precipitation 0.06 in - - ()
Sea Level Pressure  
Sea Level Pressure 29.67 in    
Wind  
Wind Speed 12 mph (SSW)    
Max Wind Speed 28 mph    
Max Gust Speed 34 mph    
Visibility 10 miles    
Events      
Averages and records for this station are not official NWS values.
T = Trace of Precipitation, MM = Missing Value Source: NWS Daily Summary

Daily Weather History Graph

Daily Weather History Graph

Search for Another Location

Airport or City:

Astronomy

Dec. 01, 2012 Rise Set
Actual Time 7:11 AM PST 4:10 PM PST
Civil Twilight 6:38 AM PST 4:44 PM PST
Nautical Twilight 6:01 AM PST 5:21 PM PST
Astronomical Twilight 5:25 AM PST 5:56 PM PST
Moon 7:07 PM PST (12/1) 9:25 AM PST (12/1)
Length of Visible Light 10h 05m
Length of Day
8h 59m
Waning Gibbous, 91% of the Moon is Illuminated
Dec 1
Waning Gibbous
Dec 6
Last Quarter
Dec 13
New
Dec 19
First Quarter
Dec 28
Full

Hourly Weather History & Observations

Time (PST) Temp. Windchill Dew Point Humidity Pressure Visibility Wind Dir Wind Speed Gust Speed Precip Events Conditions
12:15 AM 48.2 °F - 33.8 °F 58% 29.66 in 10.0 mi South 9.2 mph - N/A   Partly Cloudy
12:55 AM 48.2 °F - 33.8 °F 58% 29.68 in 10.0 mi South 5.8 mph - N/A   Scattered Clouds
1:15 AM 48.2 °F - 33.8 °F 58% 29.67 in 10.0 mi South 10.4 mph - N/A   Mostly Cloudy
1:35 AM 48.2 °F - 33.8 °F 58% 29.66 in 10.0 mi SSW 12.7 mph - N/A   Partly Cloudy
2:15 AM 48.2 °F - 33.8 °F 58% 29.68 in 10.0 mi SSW 9.2 mph - N/A   Clear
2:35 AM 48.2 °F - 33.8 °F 58% 29.66 in 10.0 mi South 17.3 mph 23.0 mph N/A   Clear
3:15 AM 48.2 °F - 33.8 °F 58% 29.65 in 10.0 mi SSW 10.4 mph 23.0 mph N/A   Clear
3:35 AM 48.2 °F - 32.0 °F 54% 29.65 in 10.0 mi WSW 12.7 mph 16.1 mph N/A   Clear
3:55 AM 48.2 °F - 32.0 °F 54% 29.64 in 10.0 mi SSW 10.4 mph 19.6 mph N/A   Scattered Clouds
4:15 AM 48.2 °F - 32.0 °F 54% 29.64 in 10.0 mi SSW 13.8 mph 19.6 mph N/A   Partly Cloudy
4:35 AM 48.2 °F - 32.0 °F 54% 29.65 in 10.0 mi SSW 12.7 mph - N/A   Mostly Cloudy
4:55 AM 50.0 °F - 30.2 °F 47% 29.65 in 10.0 mi South 15.0 mph 20.7 mph N/A   Overcast
5:15 AM 50.0 °F - 32.0 °F 50% 29.65 in 10.0 mi SSW 11.5 mph - N/A   Overcast
5:35 AM 50.0 °F - 32.0 °F 50% 29.66 in 10.0 mi SSW 11.5 mph - N/A   Mostly Cloudy
6:15 AM 48.2 °F - 33.8 °F 58% 29.67 in 10.0 mi SSW 13.8 mph - N/A   Mostly Cloudy
6:35 AM 46.4 °F 40.1 °F 33.8 °F 62% 29.66 in 10.0 mi South 15.0 mph - N/A   Mostly Cloudy
7:15 AM 48.2 °F - 33.8 °F 58% 29.67 in 10.0 mi SSW 16.1 mph 23.0 mph N/A   Mostly Cloudy
7:35 AM 48.2 °F - 33.8 °F 58% 29.67 in 10.0 mi SSW 15.0 mph - N/A   Mostly Cloudy
7:55 AM 48.2 °F - 35.6 °F 62% 29.74 in 8.0 mi West 27.6 mph 34.5 mph 0.06 in   Overcast
8:15 AM 44.6 °F 37.2 °F 33.8 °F 66% 29.71 in 8.0 mi South 17.3 mph 31.1 mph N/A   Overcast
8:35 AM 46.4 °F 39.2 °F 33.8 °F 62% 29.71 in 10.0 mi SW 18.4 mph 26.5 mph N/A   Mostly Cloudy
8:55 AM 48.2 °F - 35.6 °F 62% 29.73 in 10.0 mi WSW 15.0 mph 28.8 mph N/A   Mostly Cloudy
9:15 AM 50.0 °F - 33.8 °F 54% 29.74 in 10.0 mi West 4.6 mph 20.7 mph N/A   Mostly Cloudy
9:35 AM 51.8 °F - 33.8 °F 50% 29.75 in 10.0 mi ESE 10.4 mph 19.6 mph N/A   Partly Cloudy
9:55 AM 51.8 °F - 33.8 °F 50% 29.76 in 10.0 mi South 8.1 mph - N/A   Partly Cloudy
10:15 AM 53.6 °F - 30.2 °F 41% 29.76 in 10.0 mi South 9.2 mph 23.0 mph N/A   Scattered Clouds
10:35 AM 53.6 °F - 30.2 °F 41% 29.76 in 10.0 mi South 12.7 mph 19.6 mph N/A   Mostly Cloudy
10:55 AM 53.6 °F - 30.2 °F 41% 29.76 in 10.0 mi SSE 9.2 mph 21.9 mph N/A   Mostly Cloudy
11:15 AM 53.6 °F - 30.2 °F 41% 29.77 in 10.0 mi South 10.4 mph 24.2 mph N/A   Mostly Cloudy
11:35 AM 53.6 °F - 30.2 °F 41% 29.76 in 10.0 mi SSW 12.7 mph 23.0 mph N/A   Overcast
12:15 PM 53.6 °F - 30.2 °F 41% 29.76 in 10.0 mi SSW 8.1 mph - N/A   Overcast
12:35 PM 53.6 °F - 30.2 °F 41% 29.75 in 10.0 mi South 10.4 mph 16.1 mph N/A   Overcast
12:55 PM 53.6 °F - 32.0 °F 44% 29.75 in 10.0 mi SSW 11.5 mph - N/A   Overcast
1:15 PM 53.6 °F - 32.0 °F 44% 29.75 in 10.0 mi South 13.8 mph - N/A   Overcast
1:35 PM 53.6 °F - 30.2 °F 41% 29.74 in 10.0 mi South 10.4 mph - N/A   Overcast
1:55 PM 53.6 °F - 30.2 °F 41% 29.74 in 10.0 mi South 12.7 mph 21.9 mph N/A   Overcast
2:15 PM 51.8 °F - 35.6 °F 54% 29.73 in 10.0 mi SE 11.5 mph - N/A   Overcast
2:35 PM 51.8 °F - 35.6 °F 54% 29.73 in 10.0 mi SSE 11.5 mph - N/A   Overcast
2:55 PM 51.8 °F - 33.8 °F 50% 29.73 in 10.0 mi SSE 12.7 mph 17.3 mph N/A   Overcast
3:15 PM 50.0 °F - 33.8 °F 54% 29.71 in 10.0 mi SSE 15.0 mph 25.3 mph N/A   Overcast
3:35 PM 50.0 °F - 33.8 °F 54% 29.71 in 10.0 mi South 18.4 mph 25.3 mph N/A   Overcast
3:55 PM 48.2 °F - 33.8 °F 58% 29.71 in 10.0 mi SSW 23.0 mph 27.6 mph N/A   Overcast
4:15 PM 46.4 °F 39.2 °F 35.6 °F 66% 29.71 in 10.0 mi SSW 18.4 mph 23.0 mph N/A   Overcast
4:35 PM 46.4 °F 40.4 °F 35.6 °F 66% 29.71 in 10.0 mi SSW 13.8 mph - N/A   Overcast
4:55 PM 46.4 °F 42.4 °F 35.6 °F 66% 29.70 in 10.0 mi South 8.1 mph - N/A   Overcast
5:15 PM 46.4 °F 41.9 °F 35.6 °F 66% 29.69 in 10.0 mi South 9.2 mph - N/A   Overcast
5:35 PM 46.4 °F 41.9 °F 35.6 °F 66% 29.69 in 10.0 mi South 9.2 mph - N/A   Overcast
5:55 PM 46.4 °F 41.1 °F 35.6 °F 66% 29.66 in 10.0 mi South 11.5 mph - N/A   Mostly Cloudy
6:15 PM 46.4 °F 40.4 °F 35.6 °F 66% 29.65 in 10.0 mi South 13.8 mph 19.6 mph N/A   Mostly Cloudy
6:35 PM 46.4 °F 41.1 °F 35.6 °F 66% 29.64 in 10.0 mi South 11.5 mph 20.7 mph N/A   Overcast
6:55 PM 46.4 °F 39.8 °F 35.6 °F 66% 29.63 in 10.0 mi South 16.1 mph - N/A   Overcast
7:15 PM 46.4 °F 40.7 °F 37.4 °F 71% 29.62 in 10.0 mi SSW 12.7 mph 23.0 mph N/A   Overcast
7:35 PM 46.4 °F 40.1 °F 37.4 °F 71% 29.61 in 10.0 mi South 15.0 mph 23.0 mph N/A   Mostly Cloudy
7:55 PM 48.2 °F - 37.4 °F 66% 29.60 in 10.0 mi SSW 13.8 mph 19.6 mph N/A   Scattered Clouds
8:15 PM 48.2 °F - 37.4 °F 66% 29.61 in 10.0 mi SSW 17.3 mph 24.2 mph N/A   Scattered Clouds
8:35 PM 48.2 °F - 37.4 °F 66% 29.60 in 10.0 mi SSW 16.1 mph - N/A   Overcast
8:55 PM 48.2 °F - 37.4 °F 66% 29.59 in 10.0 mi SSW 13.8 mph - N/A   Overcast
9:15 PM 48.2 °F - 37.4 °F 66% 29.57 in 10.0 mi SSW 12.7 mph - N/A   Overcast
9:35 PM 48.2 °F - 37.4 °F 66% 29.56 in 10.0 mi SSW 11.5 mph 19.6 mph N/A   Mostly Cloudy
9:55 PM 48.2 °F - 37.4 °F 66% 29.56 in 10.0 mi SSW 9.2 mph - N/A   Partly Cloudy
10:15 PM 48.2 °F - 37.4 °F 66% 29.55 in 10.0 mi South 11.5 mph - N/A   Mostly Cloudy
10:35 PM 48.2 °F - 37.4 °F 66% 29.54 in 10.0 mi SSW 12.7 mph 17.3 mph N/A   Overcast
10:55 PM 48.2 °F - 37.4 °F 66% 29.51 in 10.0 mi South 9.2 mph - N/A   Overcast
11:15 PM 48.2 °F - 37.4 °F 66% 29.50 in 10.0 mi SSW 9.2 mph - N/A   Mostly Cloudy
11:35 PM 50.0 °F - 35.6 °F 58% 29.49 in 10.0 mi South 5.8 mph - N/A   Mostly Cloudy
11:55 PM 48.2 °F - 35.6 °F 62% 29.47 in 10.0 mi South 5.8 mph - N/A   Mostly Cloudy